Terminal Aerodrome Forecast
Issued by NWS

Home | Current Version | Previous Version | Text Only | Print | Product List | Glossary On
Versions: 1 2 3 4 5 6 7 8 9 10 11 12 13 14 15 16 17 18 19 20 21 22 23 24 25 26 27 28
408
FTUS41 KOKX 122006 AAA
TAFSWF
TAF AMD
KSWF 122006Z 1220/1324 27008KT 6SM BR VCSH SCT015 BKN030
      TEMPO 1220/1223 BKN015
     FM130000 28013G20KT P6SM VCSH SCT020 BKN030
     FM130600 29015G24KT P6SM VCSH FEW020 BKN040
     FM131300 29023G35KT P6SM BKN040
     FM132100 28020G29KT P6SM BKN040
      AMD NOT SKED=

USA.gov is the U.S. government's official web portal to all federal, state and local government web resources and services.